Location: Madaval?rg?dem
(16.6092°N, 80.7257°E)
Time: 03:53:55
(UTC+00:00)

X-37B - Visible Passes

Search period start: 16 August 2022 00:00
Search period end: 26 August 2022 00:00
Orbit: 328 x 343 km, 45.0° (Epoch: 12 August)

Date Brightness Start Highest point End Pass type
(mag) Time Alt. Az. Time Alt. Az. Time Alt. Az.
17 Aug 1.5 13:43:56 10° S 13:46:15 23° SE 13:47:02 21° ESE visible
17 Aug 2.1 23:24:23 10° NNW 23:27:04 34° NE 23:29:43 10° ESE visible
18 Aug 1.0 14:03:51 10° WSW 14:06:36 54° NW 14:08:38 16° NNE visible
18 Aug 0.9 23:44:44 10° WNW 23:47:26 37° SW 23:50:08 10° SSE visible
19 Aug 3.6 14:25:49 10° WNW 14:27:07 12° NW 14:28:26 10° NNW visible
19 Aug 3.4 22:34:30 15° ESE 22:34:30 15° ESE 22:35:08 10° ESE visible
21 Aug 3.5 13:31:13 10° WNW 13:32:33 13° NW 13:33:53 10° N visible
